General Aviation Weather

Text Reports

Enter one or more of the following location identifiers separated by a space:

Zip Code, Four-Character ICAO or Three-Character IATA airport codes.

METAR - Aviation Routine Weather Report
KLJF - Litchfield, Minnesota
Updated at 1:13 AM GMT on November 26, 2014 (7:13 PM CST):
METAR KLJF 260113Z AUTO 13006KT 10SM OVC043 M04/M09 A2997 RMK AO2
TAF - Terminal Area Forecast
KLJF - Litchfield, Minnesota
Updated at 1:13 AM GMT on November 26, 2014 (7:13 PM CST):
No TAF is currently available for this location.
Decoded:
No decoded TAF is available.
PIREP - Pilot Weather Report
KLJF - Litchfield, Minnesota
Updated at 1:13 AM GMT on November 26, 2014 (7:13 PM CST):
No PIREP is currently available for this location.
AIRMET - Airmens Meteorological Information
KLJF - Litchfield, Minnesota
Updated at 1:13 AM GMT on November 26, 2014 (7:13 PM CST):
No AIRMET is currently available for this location.
SIGMET - Significant Meteorological Information
KLJF - Litchfield, Minnesota
Updated at 1:13 AM GMT on November 26, 2014 (7:13 PM CST):
No SIGMET is currently available for this location.
NOTAM - Notice to Airmen
KLJF - Litchfield, Minnesota
Updated at 1:13 AM GMT on November 26, 2014 (7:13 PM CST):
No NOTAM is currently available for this location.
Forecast Area
KLJF - Litchfield, Minnesota
Updated at 1:13 AM GMT on November 26, 2014 (7:13 PM CST):
No NOTAM is currently available for this location.
Aviation Weather Maps